Location: ????????
(55.1591°N, 39.1782°E)
Time: 01:23:31
(UTC+00:00)

NOSS 3-1 (A) - Pass Details

Date: 14 April 2024
Orbit: 660 x 1550 km, 63.4° (Epoch: 15 May)

Event Time Altitude Azimuth Distance (km) Brightness Sun altitude
Rises 01:26:47 0° 308° (NW) 3,668 6.3 -8.0°
Reaches altitude 10° 01:29:08 10° 309° (NW) 2,833 5.7 -7.7°
Maximum altitude 01:35:59 89° 43° (NE) 1,213 4.0 -6.8°
Drops below altitude 10° 01:44:30 10° 131° (SE) 3,474 6.7 -5.7°
Sets 01:47:39 0° 132° (SE) 4,542 7.3 -5.3°
